Weather History for Lima, OH

Change the Weather History Date:

Monday, February 3, 2014

  Actual Average (KFDY) Record (KFDY)
Temperature  
Mean Temperature 16 °F -  
Max Temperature 24 °F 31 °F 51 °F (2003)
Min Temperature 8 °F 19 °F -10 °F (1951)
Degree Days  
Heating Degree Days 49    
Moisture  
Dew Point 10 °F    
Average Humidity 75    
Maximum Humidity 84    
Minimum Humidity 57    
Precipitation  
Precipitation 0.00 in - - ()
Sea Level Pressure  
Sea Level Pressure 30.32 in    
Wind  
Wind Speed 5 mph (NNE)    
Max Wind Speed 9 mph    
Max Gust Speed -    
Visibility 7 miles    
Events      
Averages and records for this station are not official NWS values.
T = Trace of Precipitation, MM = Missing Value Source: NWS Daily Summary

Daily Weather History Graph

Daily Weather History Graph

Search for Another Location

Airport:

Trip Planner

Search our weather history database for the weather conditions in past years. The results will help you decide how hot, cold, wet, or windy it might be!

Date:

Astronomy

Feb. 03, 2014 Rise Set
Actual Time 7:44 AM EST 5:56 PM EST
Civil Twilight 7:15 AM EST 6:25 PM EST
Nautical Twilight 6:42 AM EST 6:57 PM EST
Astronomical Twilight 6:10 AM EST 7:29 PM EST
Moon 9:44 AM EST (2/3) 10:47 PM EST (2/3)
Length of Visible Light 11h 09m
Length of Day
10h 12m
Waxing Crescent, 19% of the Moon is Illuminated
Feb 3
Waxing Crescent
Feb 6
First Quarter
Feb 14
Full
Feb 22
Last Quarter
Mar 1
New

Hourly Weather History & Observations

Time (EST) Temp. Windchill Dew Point Humidity Pressure Visibility Wind Dir Wind Speed Gust Speed Precip Events Conditions
12:38 AM 21.2 °F 13.6 °F 15.8 °F 80% 30.21 in 9.0 mi North 5.8 mph - N/A   Overcast
12:53 AM 21.0 °F 14.6 °F 15.1 °F 78% 30.23 in 8.0 mi NNE 4.6 mph - N/A   Overcast
1:16 AM 21.2 °F 14.9 °F 15.8 °F 80% 30.19 in 8.0 mi NNE 4.6 mph - N/A   Overcast
1:53 AM 21.9 °F 15.7 °F 16.0 °F 78% 30.23 in 7.0 mi NNE 4.6 mph - N/A   Overcast
2:01 AM 21.2 °F 14.9 °F 15.8 °F 80% 30.18 in 7.0 mi NNE 4.6 mph - N/A   Overcast
2:53 AM 21.0 °F 10.6 °F 15.1 °F 78% 30.23 in 8.0 mi North 9.2 mph - N/A   Mostly Cloudy
3:10 AM 21.2 °F 10.9 °F 14.0 °F 74% 30.18 in 8.0 mi NNE 9.2 mph - N/A   Scattered Clouds
3:53 AM 19.0 °F 8.2 °F 12.9 °F 77% 30.23 in 7.0 mi North 9.2 mph - N/A   Clear
4:53 AM 18.0 °F 7.7 °F 12.0 °F 78% 30.22 in 8.0 mi NNE 8.1 mph - N/A   Clear
5:53 AM 16.0 °F 5.3 °F 10.9 °F 81% 30.25 in 8.0 mi North 8.1 mph - N/A   Clear
6:53 AM 16.0 °F 6.3 °F 10.0 °F 77% 30.27 in 8.0 mi North 6.9 mph - N/A   Clear
7:53 AM 12.9 °F 3.8 °F 8.1 °F 81% 30.30 in 6.0 mi North 5.8 mph - N/A   Haze
8:53 AM 12.9 °F 2.6 °F 8.1 °F 81% 30.32 in 5.0 mi North 6.9 mph - N/A   Haze
9:53 AM 16.0 °F 6.3 °F 10.0 °F 77% 30.35 in 6.0 mi North 6.9 mph - N/A   Haze
10:53 AM 18.0 °F 9.8 °F 10.9 °F 74% 30.35 in 7.0 mi NNE 5.8 mph - N/A   Clear
11:53 AM 19.9 °F 13.4 °F 12.0 °F 71% 30.36 in 9.0 mi NNE 4.6 mph - N/A   Clear
12:53 PM 21.9 °F 15.7 °F 12.0 °F 66% 30.34 in 10.0 mi NNE 4.6 mph - N/A   Clear
1:53 PM 23.0 °F - 12.0 °F 63% 30.33 in 10.0 mi Calm Calm - N/A   Clear
2:53 PM 23.0 °F 17.0 °F 10.9 °F 60% 30.35 in 10.0 mi North 4.6 mph - N/A   Clear
3:53 PM 24.1 °F 18.2 °F 10.9 °F 57% 30.37 in 10.0 mi North 4.6 mph - N/A   Clear
4:53 PM 21.0 °F 12.4 °F 10.0 °F 63% 30.37 in 10.0 mi North 6.9 mph - N/A   Clear
5:53 PM 18.0 °F 9.8 °F 9.0 °F 68% 30.35 in 10.0 mi NNE 5.8 mph - N/A   Clear
6:53 PM 16.0 °F - 8.1 °F 71% 30.38 in 10.0 mi Calm Calm - N/A   Clear
7:53 PM 12.9 °F - 7.0 °F 77% 30.40 in 7.0 mi Calm Calm - N/A   Clear
8:53 PM 14.0 °F 8.2 °F 8.1 °F 77% 30.39 in 6.0 mi East 3.5 mph - N/A   Haze
9:53 PM 10.9 °F - 5.0 °F 77% 30.40 in 5.0 mi Calm Calm - N/A   Haze
10:33 PM 10.4 °F - 5.0 °F 79% 30.35 in 2.5 mi Calm Calm - N/A   Haze
10:53 PM 10.0 °F - 3.9 °F 76% 30.42 in 4.0 mi Calm Calm - N/A   Haze
11:16 PM 10.4 °F - 3.2 °F 73% 30.36 in 1.2 mi Calm Calm - N/A   Haze
11:18 PM 10.4 °F - 3.2 °F 73% 30.36 in 0.5 mi Calm Calm - N/A   Haze
11:32 PM 8.6 °F - 3.2 °F 79% 30.36 in 1.0 mi Calm Calm - N/A   Haze
11:43 PM 8.6 °F - 3.2 °F 79% 30.36 in 0.8 mi Calm Calm - N/A   Haze
11:53 PM 9.0 °F - 5.0 °F 84% 30.41 in 1.8 mi Calm Calm - N/A   Clear